Tracking 22081 objects as of 5-Dec-2020
HD Live streaming from Space Station
objects crossing your sky now

COSMOS 1678 DEB *

Track COSMOS 1678 DEB * now!
10-day predictions


NORAD ID: 18608
Int'l Code: 1985-077K
Perigee: 708.8 km
Apogee: 722.4 km
Inclination: 74.0 °
Period: 98.9 minutes
Semi major axis: 7086 km
RCS: 0.0077 m2 (small)
Launch date: August 29, 1985
Source: Commonwealth of Independent States (former USSR) (CIS)
Launch site: PLESETSK MISSILE AND SPACE COMPLEX (PKMTR)

Note: This is SATELLITE DEBRIS
aabbcc
Your satellite tracking list
Your tracking list is empty




NASA's NSSDC Master Catalog

Two Line Element Set (TLE):
1 18608U 85077K   20339.38875605  .00000438  00000-0  10752-3 0  9992
2 18608  74.0469 325.0278 0009572 137.1131 223.0780 14.55287377784530
Source of the keplerian elements: AFSPC